Wind_Speed
4 11 2 6 10 17 18 13 13 14 15 12 12 12 11 9 8 11 9 9 11 11 15 19 22 21 21 21 21 23 23 24 30
6 13 7 5 9 10 13 15 17 24 22 15 16 16 13 18 12 7 7 8 9 11 14 18 23 25 25 24 25 29 33 30 30
4 11 15 13 10 12 11 15 19 28 26 31 14 21 26 27 19 13 10 9 6 10 13 17 19 19 20 21 21 24 30 33 37
3 10 16 12 7 10 9 9 9 8 9 8 17 17 19 30 17 18 19 14 8 8 10 11 11 11 13 16 16 19 27 29 18
0 8 17 13 2 3 3 3 7 7 12 6 8 5 17 24 20 19 17 18 12 11 8 10 10 11 11 12 13 15 16 10 5
1 6 13 14 8 3 5 5 5 7 9 9 7 7 12 18 19 18 21 21 15 12 11 10 9 8 9 11 13 9 7 3 5
3 4 10 14 17 18 3 5 5 3 7 13 12 11 13 14 15 18 21 20 20 17 16 12 12 12 10 11 10 9 9 6 5
8 3 6 12 15 16 15 13 5 8 9 14 16 16 12 12 17 18 19 19 20 19 18 16 17 17 16 13 10 10 9 10 11
12 5 2 8 13 15 14 12 10 5 14 10 16 18 19 20 19 18 19 21 21 21 20 20 21 21 20 17 15 12 13 13 11
11 8 2 4 9 10 10 10 10 7 3 8 12 16 19 21 22 21 22 23 22 23 24 25 24 23 21 20 20 18 17 16 16
14 11 5 2 6 9 8 11 11 9 9 8 9 13 15 18 19 20 21 22 24 25 26 26 26 25 24 23 21 23 22 21 21
15 9 6 4 6 8 9 11 13 15 16 14 15 20 20 20 21 22 22 23 24 23 25 26 25 25 26 26 25 26 25 22 25
18 14 9 7 9 11 11 12 15 19 19 18 19 21 23 25 25 26 28 28 28 29 28 28 28 27 27 27 27 28 29 30 29
21 16 12 12 11 12 14 15 17 19 20 23 25 26 27 28 29 31 33 34 35 35 36 37 37 37 36 35 34 34 36 37 37
19 13 13 14 14 14 15 19 20 22 25 24 24 26 28 31 34 36 37 38 40 42 42 43 44 46 45 44 44 43 42 44 44
12 10 8 11 13 15 18 20 24 26 28 29 31 32 33 35 37 40 42 43 42 43 44 46 47 49 52 52 51 51 50 50 52
1 7 13 15 18 20 21 23 25 28 31 34 37 41 43 40 38 35 36 38 39 40 39 40 42 42 43 45 45 44 43 45 45
13 18 21 30 31 26 27 29 27 29 34 36 39 38 37 37 38 38 38 38 38 40 40 42 44 43 45 45 45 44 44 45 46
41 34 27 25 24 27 27 28 31 35 38 40 38 34 34 36 36 36 37 37 37 36 38 39 41 42 43 44 45 44 44 44 46
18 19 20 20 26 29 32 35 37 39 43 40 38 41 40 39 38 37 36 37 39 40 35 36 37 37 37 39 41 41 41 42 44
Wind_Direction
46 11 284 286 285 269 264 257 238 233 225 217 224 246 250 254 270 278 275 269 275 275 279 283 285 289 290 289 284 283 278 291 278
20 14 23 301 310 307 250 240 258 237 224 217 239 241 262 249 239 246 281 298 305 292 282 281 283 285 284 289 290 288 289 281 281
17 16 3 341 284 278 289 242 236 235 241 249 296 256 265 247 256 251 255 268 298 308 301 295 291 288 296 298 296 301 298 297 276
17 15 9 351 268 260 271 255 225 239 252 304 326 300 257 241 236 254 257 260 260 292 316 308 318 316 304 304 305 313 313 323 282
240 18 8 18 12 223 212 121 216 224 232 310 1 349 145 160 203 233 248 251 244 269 305 300 314 311 309 307 317 341 348 348 107
256 25 25 35 53 108 135 172 205 248 246 235 230 171 181 187 218 237 250 243 241 258 275 283 289 282 302 308 313 331 28 2 253
224 355 21 41 44 53 127 157 182 229 263 232 228 222 222 232 244 246 248 254 256 257 268 280 280 279 291 302 310 315 305 304 319
223 298 10 28 28 37 42 43 253 261 265 250 254 253 262 252 257 260 260 261 268 263 268 276 279 271 274 278 287 292 292 299 288
216 238 350 13 14 15 20 31 33 313 244 261 258 262 270 267 272 272 268 269 266 267 270 277 276 269 271 272 273 277 283 286 283
216 226 228 3 4 1 357 355 348 356 239 249 254 256 258 260 263 269 276 280 279 274 274 275 271 275 267 268 270 272 275 280 279
225 217 227 296 349 340 327 327 318 300 296 300 287 279 279 277 280 282 281 280 280 279 278 275 274 271 266 264 269 270 271 278 273
221 233 243 270 277 282 303 306 291 292 288 285 291 304 294 283 282 284 283 281 281 282 281 279 275 273 273 272 270 267 271 278 280
225 233 239 274 284 275 292 290 286 285 284 284 286 283 285 284 283 283 287 286 284 283 281 278 276 274 274 270 270 270 270 275 273
227 230 248 267 275 281 300 295 293 280 277 283 286 283 284 281 278 279 279 278 277 276 276 278 278 276 274 273 273 270 271 272 271
231 234 249 264 272 289 286 288 288 286 295 291 289 286 283 280 277 275 274 275 276 277 275 274 272 273 273 272 272 271 269 268 267
225 243 280 289 292 290 287 282 283 288 292 292 291 290 289 287 286 284 283 282 280 278 277 276 275 275 273 272 271 271 270 267 265
271 352 339 318 310 307 301 292 290 287 291 298 302 304 303 301 298 294 292 290 288 287 285 282 280 278 278 277 276 274 272 270 267
327 315 311 319 311 301 303 297 300 297 293 296 301 300 296 294 293 293 291 288 285 284 283 283 282 280 278 277 276 275 273 271 269
291 303 295 289 285 292 293 298 294 294 297 302 303 299 298 297 295 294 294 292 290 289 289 286 285 284 283 281 279 276 273 270 268
310 311 304 289 285 289 290 291 294 299 303 305 307 306 304 303 302 300 298 296 295 294 288 288 288 288 287 285 284 281 278 273 270
Height
3215 3213 3213 3215 3216 3216 3217 3220 3224 3224 3226 3228 3228 3230 3231 3231 3231 3232 3230 3229 3230 3229 3229 3228 3227 3227 3226 3225 3224 3223 3221 3219 3218
3214 3212 3211 3211 3211 3210 3212 3215 3217 3216 3221 3225 3222 3226 3229 3230 3229 3228 3229 3229 3227 3226 3224 3223 3221 3221 3219 3219 3219 3217 3214 3212 3211
3213 3212 3209 3207 3206 3206 3207 3209 3210 3210 3212 3213 3220 3221 3222 3226 3228 3227 3226 3225 3224 3223 3221 3218 3216 3215 3215 3214 3213 3212 3207 3201 3196
3212 3211 3209 3205 3204 3204 3204 3205 3209 3211 3214 3216 3215 3211 3210 3216 3224 3225 3225 3223 3221 3220 3218 3215 3213 3213 3212 3210 3209 3206 3200 3189 3178
3211 3210 3208 3204 3203 3203 3203 3203 3207 3210 3213 3213 3213 3210 3209 3210 3217 3219 3221 3220 3218 3216 3215 3213 3212 3210 3210 3208 3205 3203 3196 3191 3186
3209 3209 3208 3206 3204 3203 3204 3205 3206 3207 3209 3211 3214 3215 3214 3215 3217 3217 3217 3216 3214 3212 3211 3210 3209 3209 3207 3205 3203 3201 3197 3192 3191
3207 3208 3207 3206 3204 3204 3204 3205 3206 3207 3207 3209 3210 3213 3214 3214 3214 3214 3213 3212 3211 3208 3207 3206 3206 3205 3204 3202 3200 3199 3197 3194 3192
3204 3205 3205 3204 3203 3203 3204 3204 3204 3205 3206 3206 3207 3209 3209 3210 3209 3208 3207 3207 3206 3205 3203 3202 3202 3201 3200 3198 3197 3196 3194 3192 3191
3200 3201 3202 3202 3201 3201 3202 3203 3203 3202 3202 3202 3202 3202 3202 3202 3201 3201 3202 3201 3200 3200 3197 3196 3196 3197 3196 3194 3193 3192 3191 3190 3188
3197 3197 3199 3199 3199 3199 3199 3199 3200 3201 3200 3199 3199 3200 3200 3199 3198 3197 3195 3194 3192 3191 3191 3191 3190 3191 3189 3188 3188 3186 3185 3185 3185
3192 3193 3195 3195 3196 3196 3196 3196 3196 3196 3196 3195 3195 3194 3193 3192 3190 3189 3188 3187 3186 3186 3185 3184 3184 3183 3182 3182 3181 3180 3179 3179 3179
3187 3190 3191 3192 3192 3192 3192 3192 3192 3191 3191 3190 3190 3189 3187 3186 3185 3184 3183 3182 3180 3179 3178 3177 3176 3175 3175 3176 3176 3174 3172 3172 3172
3183 3185 3187 3188 3189 3189 3189 3188 3188 3187 3185 3184 3183 3183 3182 3181 3180 3178 3176 3175 3173 3172 3171 3170 3169 3169 3168 3168 3169 3167 3166 3164 3164
3179 3182 3184 3185 3185 3185 3184 3184 3183 3182 3181 3180 3178 3176 3175 3174 3173 3171 3169 3168 3166 3164 3162 3161 3160 3160 3159 3159 3159 3159 3157 3155 3154
3174 3177 3178 3181 3179 3179 3179 3179 3178 3178 3176 3175 3173 3171 3169 3167 3165 3162 3160 3158 3156 3153 3152 3150 3149 3147 3147 3147 3147 3146 3147 3145 3142
3172 3173 3173 3174 3174 3173 3174 3174 3173 3169 3169 3168 3165 3162 3160 3157 3154 3151 3147 3144 3142 3140 3139 3136 3134 3132 3131 3131 3132 3131 3131 3131 3129
3166 3166 3168 3170 3170 3168 3166 3164 3162 3161 3159 3158 3155 3152 3149 3145 3141 3139 3136 3133 3130 3127 3126 3123 3120 3119 3117 3115 3114 3115 3115 3114 3113
3160 3161 3160 3162 3167 3163 3157 3154 3152 3151 3150 3149 3146 3142 3139 3136 3131 3128 3125 3123 3120 3116 3114 3110 3106 3105 3103 3101 3099 3100 3099 3098 3097
3158 3156 3155 3154 3157 3159 3152 3148 3146 3144 3141 3139 3135 3132 3129 3125 3121 3118 3114 3110 3107 3105 3100 3098 3094 3091 3088 3086 3083 3084 3083 3082 3081
3151 3149 3149 3147 3150 3148 3145 3140 3137 3134 3132 3128 3125 3120 3117 3113 3109 3105 3101 3097 3093 3089 3090 3085 3082 3079 3076 3072 3069 3068 3067 3066 3064